Change the Weather History Date:

Thursday, January 10, 2013

  Actual Average Record
Temperature  
Mean Temperature 42 °F 23 °F  
Max Temperature 50 °F 36 °F 68 °F (1990)
Min Temperature 33 °F 10 °F -26 °F (1982)
Degree Days  
Heating Degree Days 23 42  
Month to date heating degree days 365 420  
Since 1 July heating degree days 3041 3315  
Cooling Degree Days 0 0  
Month to date cooling degree days 0 0  
Year to date cooling degree days 0 0  
Moisture  
Dew Point 30 °F    
Average Humidity 67    
Maximum Humidity 92    
Minimum Humidity 42    
Precipitation  
Precipitation 0.00 in 0.01 in 0.32 in (1892)
Month to date precipitation 0.01 0.09  
Year to date precipitation 0.01 0.09  
Snow  
Snow 0.00 in 0.20 in 3.50 in (1949)
Month to date snowfall 0.2 1.4  
Since 1 July snowfall 13.5 14.1  
Snow Depth 0.00 in    
Sea Level Pressure  
Sea Level Pressure 29.77 in    
Wind  
Wind Speed 16 mph (SSW)    
Max Wind Speed 28 mph    
Max Gust Speed 37 mph    
Visibility 10 miles    
Events      
T = Trace of Precipitation, MM = Missing Value Source: NWS Daily Summary

Daily Weather History Graph

Daily Weather History Graph

Search for Another Location

Airport or City:

Trip Planner

Search our weather history database for the weather conditions in past years. The results will help you decide how hot, cold, wet, or windy it might be!

Date:

Astronomy

Jan. 10, 2013 Rise Set
Actual Time 8:12 AM CST 5:28 PM CST
Civil Twilight 7:40 AM CST 5:59 PM CST
Nautical Twilight 7:05 AM CST 6:34 PM CST
Astronomical Twilight 6:31 AM CST 7:09 PM CST
Moon 6:53 AM CST (1/10) 4:38 PM CST (1/10)
Length of Visible Light 10h 19m
Length of Day
9h 15m
Waning Crescent, 2% of the Moon is Illuminated
Jan 10
Waning Crescent
Jan 11
New
Jan 18
First Quarter
Jan 26
Full
Feb 3
Last Quarter

Hourly Weather History & Observations

Time (CST) Temp. Windchill Dew Point Humidity Pressure Visibility Wind Dir Wind Speed Gust Speed Precip Events Conditions
12:52 AM 41.0 °F 31.6 °F 26.1 °F 55% 30.07 in 10.0 mi SSW 20.7 mph 31.1 mph N/A   Clear
1:52 AM 39.9 °F 29.7 °F 24.1 °F 53% 30.06 in 10.0 mi SSW 23.0 mph 29.9 mph N/A   Clear
2:52 AM 39.9 °F 30.5 °F 25.0 °F 55% 30.06 in 10.0 mi SSW 19.6 mph - N/A   Clear
3:52 AM 39.9 °F 30.0 °F 23.0 °F 51% 30.04 in 10.0 mi SSW 21.9 mph 29.9 mph N/A   Clear
4:52 AM 39.9 °F 30.8 °F 21.0 °F 47% 30.01 in 10.0 mi SSW 18.4 mph 28.8 mph N/A   Clear
5:52 AM 36.0 °F 26.7 °F 21.0 °F 55% 30.00 in 10.0 mi SSW 15.0 mph - N/A   Clear
6:52 AM 35.1 °F 26.4 °F 21.0 °F 57% 30.00 in 10.0 mi SSW 12.7 mph - N/A   Clear
7:52 AM 33.1 °F 23.4 °F 21.0 °F 61% 29.98 in 10.0 mi South 13.8 mph - N/A   Clear
8:52 AM 34.0 °F 24.6 °F 23.0 °F 64% 29.97 in 10.0 mi SSW 13.8 mph - N/A   Clear
9:13 AM 35.6 °F 25.9 °F 23.0 °F 60% 29.89 in 10.0 mi SSW 16.1 mph - N/A   Mostly Cloudy
9:30 AM 37.4 °F 28.2 °F 23.0 °F 56% 29.87 in 10.0 mi South 16.1 mph - N/A   Scattered Clouds
9:52 AM 39.9 °F 31.1 °F 24.1 °F 53% 29.90 in 10.0 mi South 17.3 mph - N/A   Clear
10:52 AM 46.0 °F 39.3 °F 25.0 °F 44% 29.86 in 10.0 mi SSW 16.1 mph - N/A   Clear
11:52 AM 46.4 °F 39.5 °F 28.4 °F 50% 29.79 in 10.0 mi South 17.3 mph 23.0 mph N/A   Clear
12:52 PM 48.2 °F - 33.8 °F 58% 29.71 in 10.0 mi South 15.0 mph - N/A   Clear
1:52 PM 48.2 °F - 37.4 °F 66% 29.67 in 10.0 mi SSW 15.0 mph - N/A   Mostly Cloudy
2:52 PM 48.0 °F - 37.0 °F 66% 29.69 in 10.0 mi South 11.5 mph - N/A   Mostly Cloudy
3:08 PM 48.2 °F - 37.4 °F 66% 29.64 in 10.0 mi South 12.7 mph - N/A   Scattered Clouds
3:52 PM 46.9 °F - 36.0 °F 66% 29.65 in 10.0 mi South 11.5 mph - N/A   Clear
4:52 PM 45.0 °F 40.6 °F 36.0 °F 71% 29.64 in 10.0 mi SSW 8.1 mph - N/A   Clear
5:52 PM 41.0 °F 33.1 °F 36.0 °F 82% 29.62 in 10.0 mi SSW 15.0 mph - N/A   Clear
6:49 PM 39.2 °F 31.6 °F 35.6 °F 87% 29.56 in 10.0 mi SSW 12.7 mph - N/A   Mostly Cloudy
6:52 PM 39.0 °F 31.0 °F 35.1 °F 86% 29.60 in 10.0 mi South 13.8 mph - N/A   Mostly Cloudy
7:14 PM 39.2 °F 29.8 °F 35.6 °F 87% 29.55 in 10.0 mi SSW 18.4 mph - N/A   Overcast
7:52 PM 37.9 °F 30.9 °F 35.1 °F 89% 29.61 in 8.0 mi SSW 10.4 mph - N/A   Overcast
8:14 PM 37.4 °F 28.5 °F 35.6 °F 93% 29.53 in 6.0 mi SSW 15.0 mph 21.9 mph N/A   Overcast
8:52 PM 37.0 °F 26.7 °F 35.1 °F 93% 29.58 in 8.0 mi SSW 19.6 mph 25.3 mph N/A   Overcast
9:52 PM 36.0 °F 26.7 °F 34.0 °F 93% 29.55 in 9.0 mi SSW 15.0 mph - N/A   Overcast
10:52 PM 36.0 °F 26.7 °F 34.0 °F 93% 29.55 in 10.0 mi SW 15.0 mph - N/A   Overcast
11:52 PM 35.6 °F 27.1 °F 33.8 °F 93% 29.50 in 10.0 mi SW 12.7 mph - N/A   Overcast